Regional Weather Roundup
Issued by NWS

Home | Current Version | Previous Version | Text Only | Print | Product List | Glossary Off
Versions: 1 2 3 4 5 6 7 8 9 10 11 12 13 14 15 16 17 18 19 20 21 22 23 24 25 26 27 28 29 30 31 32 33 34 35 36 37 38 39 40 41 42 43 44 45 46 47 48 49 50

000
ASUS43 KFSD 271602
RWRSD

WEATHER ROUNDUP FOR SOUTH DAKOTA
NATIONAL WEATHER SERVICE SIOUX FALLS SD
1100 AM CDT THU AUG 27 2015

NOTE: "FAIR" INDICATES FEW OR NO CLOUDS BELOW 12,000 FEET WITH NO
SIGNIFICANT WEATHER AND/OR OBSTRUCTIONS TO VISIBILITY.


SDZ001>005-009-010-012>017-271700-
NORTHWEST AND NORTH CENTRAL SOUTH DAKOTA

CITY           SKY/WX    TMP DP  RH WIND       PRES   REMARKS
BUFFALO          N/A     71  61  70 SW6       29.95R
MOBRIDGE       CLOUDY    73  69  87 S6        29.98R
$$

SDZ012>016-024>037-041>051-057-063-072>074-271700-
SOUTHWEST AND SOUTH CENTRAL SOUTH DAKOTA

CITY           SKY/WX    TMP DP  RH WIND       PRES   REMARKS
RAPID CTY ARPT LGT RAIN  67  63  87 NW7       30.05S
PIERRE         CLOUDY    71  66  84 CALM      29.97R
CUSTER         CLOUDY    65  51  60 N8G16     30.18S
ELLSWORTH AFB  DRIZZLE   68  62  83 W5        30.05R
PHILIP         CLOUDY    71  63  75 N12       29.99R
PINE RIDGE     CLOUDY    72  56  57 N13       30.02F
WINNER         PTSUNNY   75  66  73 SE15      29.94F
$$

SDZ004>011-016>023-039-040-271700-
NORTHEAST SOUTH DAKOTA

CITY           SKY/WX    TMP DP  RH WIND       PRES   REMARKS
ABERDEEN       PTSUNNY   74  66  76 NE5       29.96R
WATERTOWN      CLOUDY    68  64  87 VRB6      29.97F
BROOKINGS      CLOUDY    64  61  88 SE7       30.01F
$$

SDZ017-020-022-023-036>040-048>070-271700-
SOUTHEAST SOUTH DAKOTA

CITY           SKY/WX    TMP DP  RH WIND       PRES   REMARKS
SIOUX FALLS    CLOUDY    73  65  75 N6        30.00R
HURON          CLOUDY    69  66  90 SW8       29.95R
MITCHELL       CLOUDY    71  65  81 SE10      29.96F
YANKTON        CLOUDY    70  64  83 SE15      29.95R
$$

ABBREVIATIONS USED IN REMARKS
   TC - TEMPERATURE IN CELSIUS
  WCI - WIND CHILL INDEX
   HX - HEAT INDEX
  VSB - VISIBILITY



USA.gov is the U.S. government's official web portal to all federal, state and local government web resources and services.